Location: Az?znagar
(16.8373°N, 80.5091°E)
Time: 01:51:34
(UTC+00:00)

Nadezhda 4 Rocket - Pass Details

Date: 08 July 2022
Orbit: 949 x 992 km, 82.9° (Epoch: 09 August)

Event Time Altitude Azimuth Distance (km) Brightness Sun altitude
Rises 23:11:16 0° 182° (S) 3,658 6.7 -13.6°
Reaches altitude 10° 23:13:47 10° 181° (S) 2,705 6.0 -13.1°
Maximum altitude 23:19:58 85° 94° (E) 969 4.0 -11.8°
Drops below altitude 10° 23:26:07 10° 6° (N) 2,682 6.8 -10.5°
Sets 23:28:36 0° 5° (N) 3,624 7.5 -9.9°
